AirNav   ProFlight Series 2 Aviation Headset
 
 663 users online  

KDTG Dwight Airport
Dwight, Illinois, USA

GOING TO DWIGHT?


FAA INFORMATION EFFECTIVE 16 JULY 2020

Location

FAA Identifier: DTG
Lat/Long: 41-07-57.4385N 088-26-19.1230W
41-07.957308N 088-26.318717W
41.1326218,-88.4386453
(estimated)
Elevation: 632 ft. / 193 m (estimated)
Variation: 02W (2000)
From city: 3 miles N of DWIGHT, IL
Time zone: UTC -5 (UTC -6 during Standard Time)
Zip code: 60420

Airport Operations

Airport use: Open to the public
Activation date: 04/1962
Control tower: no
ARTCC: CHICAGO CENTER
FSS: KANKAKEE FLIGHT SERVICE STATION
NOTAMs facility: IKK (NOTAM-D service available)
Attendance: UNATNDD
Pattern altitude: 1432 ft. MSL
Wind indicator: yes
Segmented circle: no
Lights: FOR LIRL RY 09/27 AFTER 2200 CALL 815-258-8218.
Beacon: white-green (lighted land airport)
FOR ROTG BCN CALL 815-258-8218.

Airport Communications

CTAF/UNICOM: 122.8
WX AWOS-3 at PNT (15 nm SW): 119.675 (815-844-0923)
WX AWOS-3 at C09 (18 nm N): 118.175 (815-941-1815)
  • APCH/DEP SVC PRVDD BY CHICAGO ARTCC ON FREQS 123.75/259.1 (AURORA RCAG).

Nearby radio navigation aids

VOR radial/distance  VOR name  Freq  Var
PNTr033/23.0PONTIAC VOR/DME109.6003E
JOTr190/25.4JOLIET VOR/DME112.3002E
IKKr277/26.8KANKAKEE VOR/DME111.6000E
EONr252/30.4PEOTONE VORTAC113.2002E
RBSr337/35.3ROBERTS VOR/DME116.8002E

Airport Services

Fuel available: 100LL
Parking: hangars and tiedowns

Runway Information

Runway 9/27

Dimensions: 2364 x 21 ft. / 721 x 6 m
21' ASPH STRIP CENTERED ON 100' TURF STRIP.
Surface: asphalt/turf, in good condition
Runway edge lights: non-standard
RY 09/27 NSTD LIRL; NOT FAA APPROVED L-800 SERIES. SPACING & INTST OF LGTS VARY.
Runway edge markings: 09/27 NSTD MKGS DUE TO NARROW WIDTH.
RUNWAY 9  RUNWAY 27
Latitude: 41-07.950550N41-07.964067N
Longitude: 088-26.576017W088-26.061417W
Elevation: 629.0 ft.623.0 ft.
Traffic pattern: leftleft
Runway heading: 090 magnetic, 088 true270 magnetic, 268 true
Displaced threshold: no300 ft.
Markings: NSTD, in good conditionNSTD, in good condition
Runway end identifier lights: no
Touchdown point: yes, no lightsyes, no lights
Obstructions: none17 ft. bldg, 389 ft. from runway, 332 ft. right of centerline, 11:1 slope to clear
15 FT RD 185 FT FM RY END 0B CNTRLN; NUMEROUS BLDGS R OF CNTRLN +299 FT IN FRONT 164 FT IN BACK OF THE RY END WITH MAX TOP AT 20 FT 237 FT RIGHT OF CNTRLN & 106 FT IN FRONT OF RY END.

Runway 18/36

Dimensions: 1900 x 100 ft. / 579 x 30 m
Surface: turf, in good condition
RUNWAY 18  RUNWAY 36
Traffic pattern: leftleft
Markings: nonenone
Runway end identifier lights: nono

Airport Ownership and Management from official FAA records

Ownership: Privately-owned
Owner: DWIGHT AERO SERVICE
6034 E CAMBRIDGE AVENUE
SCOTTSDALE, AZ 85257
Phone (602) 319-3319
C/O DEANNA SCHAFF (MAJORITY SHARE HOLDER) EMAIL ADDRESS: DEANNASCHAFF@AOL.COM (ALL LOWER CASE).
Manager: DAN RIBORDY
PO BOX 214
DWIGHT, IL 60420
Phone (815) 374-4319
EMAIL ADDRESS: DTGAERO@GMAIL.COM (ALL LOWER CASE)

Airport Operational Statistics

Aircraft based on the field: 11
Single engine airplanes: 9
Ultralights: 2
    
Aircraft operations: avg 38/week *
68% local general aviation
32% transient general aviation
* for 12-month period ending 30 November 2018

Additional Remarks

FOR CD CTC CHICAGO ARTCC AT 630-906-8921.

Instrument Procedures

There are no published instrument procedures at KDTG.

Some nearby airports with instrument procedures:

KPNT - Pontiac Municipal Airport (15 nm SW)
C09 - Morris Municipal Airport-James R. Washburn Field (18 nm N)
KIKK - Greater Kankakee Airport (27 nm E)
KLOT - Lewis University Airport (32 nm NE)
KVYS - Illinois Valley Regional Airport-Walter A Duncan Field (35 nm W)
 
Loc | Ops | Rwys | IFR | FBO | Links
Com | Nav | Svcs | Stats | Notes
Area around KDTG (Dwight Airport)
 
Road maps at: MapQuest Bing Google
 
Aerial photo
WARNING: Photo may not be current or correct
Aerial photo of KDTG (Dwight Airport)
Photo by Roger Kellogg
Photo taken 15-Apr-2007

Do you have a better or more recent aerial photo of Dwight Airport that you would like to share? If so, please send us your photo.

 
Sectional chart

 
Airport distance calculator
Flying to Dwight Airport? Find the distance to fly.

From to KDTG

Sunrise and sunset
Times for 08-Aug-2020
 Local
(UTC-5)
 Zulu
(UTC)
Morning civil twilight05:2810:28
Sunrise05:5810:58
Sunset20:0001:00
Evening civil twilight20:3001:30

Current date and time
Zulu (UTC)  09-Aug-2020 04:45:27
Local (UTC-5)  08-Aug-2020 23:45:27
 
METAR
KPNT 
16nm SW 
090435Z AUTO 14005KT 7SM CLR 21/21 A3012 RMK AO2 T02110208
KC09 
18nm N 
090435Z AUTO 15004KT 10SM BKN033 22/22 A3010 RMK AO2 T02200217
KJOT 
26nm NE 
090435Z AUTO 19003KT 10SM CLR 24/22 A3010 RMK AO2 T02370215
KIKK 
27nm E 
090436Z AUTO 20006KT 10SM CLR 22/20 A3012 RMK AO2
TAF
KBMI 
45nm SW 
081720Z 0818/0918 20010KT P6SM FEW050 SCT150 FM090400 19008KT P6SM SCT045 BKN200
KDPA 
48nm N 
090257Z 0903/0924 19008KT P6SM FEW035 SCT250 FM091600 19012G20KT P6SM FEW050 SCT250
KMDW 
50nm NE 
090257Z 0903/1006 19008KT P6SM FEW035 SCT250 FM091600 19012G20KT P6SM FEW050 SCT250 FM100200 18009KT P6SM FEW050 SCT250
NOTAMs
Click for the latest NOTAMs
NOTAMs are issued by the DoD/FAA and will open in a separate window not controlled by AirNav.

 

 
 

Would you like to see your business listed on this page?

 If your business provides an interesting product or service to pilots, flight crews, aircraft, or users of the Dwight Airport, you should consider listing it here.  To start the listing process, click on the button below
 
Add a business
 

Other Pages about Dwight Airport

Update a link
 
Copyright © AirNav, LLC. All rights reserved. Privacy Policy  Contact